This is the latest recevied weather packets stored in our database for station/object JA6YCL-13. If no packets are shown the sender has not sent any weather packets the latest 10 day(s).
| Time | Temp. | Humidity | Pressure | Rain* | Wind** | Luminosity | Snow |
|---|---|---|---|---|---|---|---|
| 1777468731 | 13.89° C | 85% | 1018.9 hPa | 0 mm | - | - | - |
| 1777468001 | 13.89° C | 83% | 1018.8 hPa | 0 mm | - | - | - |
| 1777467229 | 14.44° C | 80% | 1018.9 hPa | 0 mm | - | - | - |
| 1777466372 | 14.44° C | 77% | 1018.8 hPa | 0 mm | - | - | - |
| 1777465504 | 15° C | 73% | 1018.7 hPa | 0 mm | - | - | - |
| 1777464606 | 15° C | 72% | 1018.5 hPa | 0 mm | - | - | - |
| 1777463761 | 15° C | 72% | 1018.3 hPa | 0 mm | - | - | - |
| 1777462868 | 15° C | 74% | 1018.1 hPa | 0 mm | - | - | - |
| 1777462133 | 15° C | 75% | 1017.9 hPa | 0 mm | - | - | - |
| 1777461367 | 15° C | 74% | 1017.8 hPa | 0 mm | - | - | - |
| 1777460536 | 15° C | 75% | 1017.8 hPa | 0 mm | - | - | - |
| 1777459816 | 15.56° C | 74% | 1017.6 hPa | 0 mm | - | - | - |
| 1777458926 | 15.56° C | 73% | 1017.7 hPa | 0 mm | - | - | - |
| 1777458092 | 15.56° C | 72% | 1017.6 hPa | 0 mm | - | - | - |
| 1777457230 | 15.56° C | 75% | 1017.6 hPa | 0 mm | - | - | - |
| 1777456381 | 15.56° C | 74% | 1017.5 hPa | 0 mm | - | - | - |
| 1777455571 | 16.11° C | 72% | 1017.4 hPa | 0 mm | - | - | - |
| 1777454815 | 16.11° C | 71% | 1017.4 hPa | 0 mm | - | - | - |
| 1777454086 | 16.11° C | 73% | 1017.4 hPa | 0 mm | - | - | - |
| 1777453303 | 16.11° C | 72% | 1017.1 hPa | 0 mm | - | - | - |
| 1777452567 | 16.11° C | 72% | 1017 hPa | 0 mm | - | - | - |
| 1777451846 | 16.11° C | 72% | 1017 hPa | 0 mm | - | - | - |
| 1777451123 | 16.67° C | 70% | 1016.8 hPa | 0 mm | - | - | - |
| 1777450299 | 16.67° C | 69% | 1016.8 hPa | 0 mm | - | - | - |
| 1777449421 | 16.67° C | 72% | 1016.6 hPa | 0 mm | - | - | - |
* Rain latest hour (hover to see other rain measurements)
** Current wind speed in m/s (hover to see current wind gust speed)